Temperature
18 18 18 18 18 18 18 18 18 17 17 17 17 17 17 17 18 18 18 18 18 18 17 17 17 17 17 17 17 17 17 17 17 17 17 17 16 16 16 16 16 16 15
18 18 18 18 18 18 18 18 18 18 18 18 18 17 17 18 18 17 18 18 18 18 18 18 17 17 17 17 17 17 17 17 17 17 17 17 16 16 16 16 16 16 16
18 18 18 18 18 18 18 18 18 18 18 18 18 18 18 18 18 17 18 18 18 18 18 18 18 17 17 17 17 17 17 17 17 17 17 17 17 16 16 16 16 16 15
18 18 18 18 18 18 18 18 18 18 18 18 18 18 18 18 18 18 18 18 18 18 18 18 18 18 18 17 17 17 17 17 17 17 17 17 17 17 16 16 16 16 15
18 18 18 18 18 18 18 18 18 18 18 17 18 18 18 18 18 18 18 18 18 18 18 18 18 18 18 18 18 17 17 17 17 17 17 17 17 17 16 16 16 16 15
18 18 18 18 18 18 18 18 18 18 18 17 17 18 18 18 18 18 18 18 18 18 18 18 18 18 18 18 18 18 18 17 17 17 17 17 17 17 16 16 16 16 15
19 18 17 17 18 17 18 17 17 17 17 17 17 17 18 18 18 18 18 18 19 18 18 18 18 18 18 18 18 18 18 18 17 17 17 17 17 17 16 16 16 16 15
18 18 17 17 17 17 17 17 17 17 17 17 16 17 18 19 19 19 18 18 18 18 18 18 18 18 18 18 18 18 18 18 18 17 17 17 17 17 17 16 16 16 15
18 17 17 17 17 17 17 17 17 17 17 16 16 16 17 19 19 19 18 18 17 17 18 18 17 17 17 18 18 18 18 18 17 17 17 17 17 17 17 16 16 16 16
17 17 16 16 16 16 17 17 16 16 16 16 16 16 16 16 16 17 18 18 17 17 17 17 17 17 17 17 17 17 17 17 17 17 17 17 17 17 17 17 16 16 16
16 16 16 16 16 16 16 16 16 16 16 15 15 15 15 15 15 15 16 17 17 17 16 16 16 17 17 17 17 17 17 17 17 17 17 17 17 17 17 17 16 16 16
16 15 15 15 15 15 15 16 16 15 15 15 15 15 15 15 15 15 15 15 16 16 16 16 16 16 16 16 16 16 17 17 17 17 17 17 17 17 17 17 16 16 16
15 15 15 15 15 15 15 15 15 15 15 15 15 15 15 15 15 15 15 15 15 16 16 16 15 15 15 15 15 16 16 16 16 16 16 16 16 16 16 17 17 16 16
14 14 14 14 14 14 14 14 14 14 14 14 14 14 14 14 14 14 14 14 15 15 15 15 15 15 14 15 15 15 15 15 16 16 16 16 16 16 16 16 16 16 16
14 14 14 14 14 14 14 14 14 14 14 14 14 14 14 14 13 13 13 13 14 15 15 14 14 14 14 14 15 15 15 15 15 15 15 15 16 16 16 16 16 16 16
13 13 13 13 13 13 13 13 13 13 13 13 13 13 13 13 13 13 13 13 13 13 14 14 14 14 14 14 14 15 15 15 15 15 15 15 15 16 16 16 16 16 16
12 13 13 13 13 12 12 13 13 13 13 13 13 13 13 13 13 13 13 13 13 13 13 14 14 13 14 14 14 14 14 14 14 14 14 15 15 15 15 16 16 16 15
12 12 12 12 12 12 12 12 12 12 12 12 12 12 12 12 12 12 12 12 13 13 13 13 13 13 13 13 14 14 14 14 14 14 14 14 14 15 15 15 15 15 15
11 12 12 12 12 12 12 12 12 12 12 12 11 11 11 11 11 12 12 12 12 13 13 13 13 13 13 13 13 13 13 13 13 13 14 14 14 14 14 14 15 15 14
11 11 11 11 11 11 11 11 11 11 11 11 11 11 11 11 11 11 11 11 12 12 13 13 13 12 12 12 12 13 13 13 13 13 13 13 13 13 14 14 14 14 14
11 11 11 11 11 11 11 11 11 11 11 11 11 11 11 11 11 11 11 11 12 12 13 13 12 12 12 12 12 12 12 13 13 12 12 12 12 13 13 13 13 13 13
11 11 11 11 11 11 11 11 11 11 11 11 10 11 11 11 11 11 11 11 11 11 11 12 12 11 11 11 11 11 12 12 12 12 12 12 12 12 12 12 12 12 12
11 11 11 11 11 11 11 11 11 11 10 10 10 10 11 10 11 10 11 11 11 11 11 11 11 11 11 11 11 11 11 11 11 11 11 11 11 11 11 12 12 12 12
11 11 11 11 11 11 11 11 11 10 10 10 10 10 10 10 10 10 10 10 10 10 10 10 11 11 11 11 11 11 11 11 11 11 11 11 11 11 11 11 11 11 11
11 11 11 11 11 11 10 10 10 10 10 10 10 10 10 10 10 10 10 10 10 10 10 10 10 10 10 11 11 11 11 12 11 11 11 10 10 11 11 11 11 11 11
10 10 10 10 10 10 10 10 10 10 10 10 9 9 9 9 9 9 9 9 9 9 10 10 10 10 10 10 10 10 11 11 11 11 10 10 10 10 10 10 10 11 11
Wind_Speed
8 7 7 7 9 8 8 8 8 8 9 10 10 10 10 11 12 12 9 11 15 17 16 15 15 16 17 16 16 15 15 16 17 18 19 20 20 20 21 21 22 22 22
8 7 8 7 8 9 9 8 9 9 9 9 10 10 11 12 12 12 13 11 16 18 18 16 16 16 17 16 16 15 15 16 16 17 18 19 19 19 20 20 21 23 23
11 9 9 9 9 10 9 10 11 9 10 10 11 12 11 11 12 12 13 13 12 16 20 19 18 17 17 17 17 16 17 17 17 17 17 18 18 18 19 19 20 23 24
12 10 10 10 9 10 9 9 10 10 10 10 11 11 11 11 13 13 14 13 13 12 15 20 19 18 18 18 18 18 18 18 18 18 18 18 18 18 18 19 19 22 24
12 10 9 9 10 8 8 10 9 9 10 11 12 12 13 13 13 14 14 14 14 14 14 13 19 19 19 19 19 19 19 19 19 19 19 19 19 19 19 19 19 21 24
9 8 8 9 9 8 8 8 9 9 10 11 13 13 14 15 15 15 16 15 14 15 16 15 13 16 21 20 20 20 20 20 20 21 20 20 20 20 20 20 20 20 24
6 4 7 8 8 8 9 10 9 11 11 9 11 13 14 15 15 14 14 14 15 14 14 14 13 13 12 21 22 20 20 21 21 22 22 22 21 21 21 21 21 21 23
5 5 6 6 7 7 8 9 8 9 9 8 9 11 11 11 10 11 11 11 12 11 11 12 12 11 12 10 14 20 20 21 21 22 23 23 23 22 22 23 22 22 22
6 5 6 6 6 7 7 7 7 9 8 8 8 7 8 10 9 7 8 8 8 7 8 7 9 9 10 11 10 14 17 18 20 22 22 22 22 22 22 22 23 23 23
7 6 6 7 7 6 6 7 7 6 8 8 7 8 9 9 8 8 8 6 6 7 6 5 5 6 7 8 8 9 12 15 17 19 20 20 21 20 20 20 22 22 23
7 7 7 6 6 6 5 5 5 6 6 7 7 7 8 8 10 8 9 8 7 7 6 6 5 4 4 5 6 8 9 13 14 15 17 18 18 17 17 18 21 22 23
6 7 6 5 5 5 5 5 5 5 5 5 6 5 6 6 6 6 7 8 8 7 6 5 5 4 4 5 6 5 8 10 12 14 14 15 16 16 17 18 20 22 24
6 7 6 6 5 5 5 5 5 4 4 4 4 4 4 4 5 6 6 6 7 5 4 4 3 2 2 3 3 4 7 8 9 10 11 12 14 16 17 19 20 22 24
6 6 6 5 6 6 5 5 5 4 2 2 2 3 3 3 4 4 5 6 6 5 3 3 3 2 3 4 3 6 6 6 7 7 8 9 12 14 16 18 20 21 23
5 6 5 5 5 5 4 5 3 2 2 2 1 2 3 3 4 4 4 5 5 6 5 3 4 4 5 6 5 6 6 3 5 6 7 9 11 13 15 17 18 20 20
4 5 5 5 5 4 4 4 3 2 1 1 2 4 4 4 4 4 4 4 4 5 6 5 5 6 7 6 5 6 5 3 5 5 6 7 10 12 14 15 16 17 19
3 5 5 5 4 3 3 2 2 2 2 4 4 5 6 6 6 5 5 4 4 4 6 7 5 6 6 6 5 4 4 4 4 4 5 7 9 10 11 12 12 15 17
2 3 4 4 4 4 3 4 4 5 6 6 6 6 6 6 7 7 6 6 5 5 6 8 7 5 5 6 6 4 3 4 3 2 3 6 7 8 9 8 8 12 16
3 4 4 5 5 6 6 7 8 8 8 8 7 7 7 8 8 8 8 8 7 6 5 5 6 5 5 7 7 5 4 4 4 4 3 3 5 6 6 4 5 10 16
4 5 6 7 7 8 9 9 9 9 9 9 9 9 9 9 9 8 7 8 8 7 6 6 6 7 7 9 8 7 6 4 4 3 1 2 3 3 3 1 4 9 15
6 7 8 8 9 8 8 10 10 11 11 10 9 9 10 9 8 8 8 9 9 9 8 8 9 9 10 10 9 8 8 7 3 2 2 1 1 1 1 2 4 9 13
7 8 8 9 9 9 9 9 9 11 10 10 9 8 8 9 6 6 7 8 10 9 10 10 10 10 11 10 9 8 8 7 4 4 3 1 1 1 1 1 6 9 11
8 9 9 10 11 9 9 9 8 9 10 9 8 8 8 9 10 8 4 5 8 7 7 9 11 11 12 11 10 10 8 7 5 6 3 2 2 1 1 3 10 10 11
8 9 10 11 11 9 8 8 5 8 8 8 8 8 8 9 10 10 6 7 8 9 9 9 9 9 10 10 10 8 6 3 4 5 5 4 4 2 2 2 8 9 10
8 9 9 10 10 8 5 3 1 6 6 6 6 7 8 8 11 13 7 6 6 5 4 3 2 4 5 7 11 10 10 7 6 6 5 3 3 2 2 2 3 6 8
9 9 9 9 9 8 5 2 3 3 4 3 4 5 10 10 11 13 8 8 8 7 7 5 2 3 5 7 9 12 11 10 8 6 6 4 3 2 2 2 2 2 4
Wind_Direction
235 238 244 251 257 256 253 253 268 278 280 274 272 271 271 271 267 263 261 228 233 242 248 250 248 247 248 248 243 239 236 235 233 230 229 230 233 234 234 232 227 221 216
239 242 241 244 253 259 265 276 276 277 275 279 279 277 274 272 268 267 264 250 226 232 241 246 248 245 241 242 240 237 235 234 232 230 229 230 232 234 235 233 229 222 215
237 242 250 250 253 260 262 264 271 274 272 272 273 274 271 267 268 266 267 268 259 230 225 233 240 242 238 236 235 233 230 230 230 230 230 231 232 233 233 233 231 223 214
245 248 254 256 258 260 262 264 265 270 272 274 278 279 278 273 266 264 262 258 259 262 233 219 227 234 235 233 232 230 228 227 228 229 230 231 232 232 232 232 231 225 215
253 254 259 266 267 262 261 265 267 270 275 277 277 274 273 272 270 266 263 262 258 254 257 227 213 225 230 231 229 228 227 226 225 227 228 229 231 231 232 232 230 226 217
261 263 260 265 270 268 266 264 271 268 272 276 280 281 278 274 270 267 265 262 256 251 248 250 232 223 220 224 225 226 227 226 225 226 228 230 230 230 231 231 230 228 219
257 259 267 268 269 268 270 272 273 273 272 277 281 281 276 266 261 261 262 264 261 256 251 247 244 242 219 214 220 225 228 228 227 228 229 230 231 231 231 231 230 227 220
243 243 253 261 268 273 269 269 272 279 283 279 282 291 289 281 261 255 255 256 262 261 253 242 238 237 241 228 213 217 228 233 234 233 233 233 234 234 233 230 228 225 220
213 215 224 242 252 258 263 268 271 269 279 281 272 275 290 296 315 278 265 263 263 264 258 253 237 234 233 238 232 214 223 234 241 243 242 239 237 237 234 231 227 223 218
208 206 213 223 234 244 255 260 267 274 272 278 276 261 264 281 285 291 277 268 260 253 253 250 243 232 234 238 237 240 229 235 243 249 252 250 246 241 237 234 229 225 218
202 204 202 215 226 236 249 260 264 265 268 274 281 281 279 273 262 266 283 287 279 265 254 244 246 249 244 246 249 248 241 240 242 249 256 260 258 252 244 239 237 233 225
188 198 193 206 222 232 235 242 252 253 270 283 289 290 289 288 290 279 281 290 287 280 273 258 247 245 244 257 259 267 258 250 245 245 249 255 260 260 255 249 244 240 232
187 189 191 200 212 223 235 246 246 262 266 281 293 306 309 310 311 304 295 299 296 296 282 267 262 263 259 268 276 289 267 253 245 242 243 249 258 263 260 254 250 243 234
181 179 187 199 211 221 232 239 248 244 258 282 309 329 323 342 339 336 329 321 315 309 302 317 320 328 324 306 310 282 270 240 239 241 248 257 262 265 263 258 250 242 233
163 173 184 197 207 215 226 238 236 240 250 280 324 349 344 352 346 347 339 334 326 322 327 345 337 343 328 313 308 290 275 224 230 245 257 267 271 272 269 262 249 237 227
151 168 180 188 196 203 212 229 213 174 195 42 25 24 7 0 357 350 345 335 320 313 310 320 315 318 323 317 312 296 285 214 231 243 265 278 282 282 279 267 249 232 218
164 174 174 180 182 181 184 193 161 138 103 74 58 53 43 26 12 5 1 350 343 323 307 314 320 322 321 327 326 306 288 269 238 224 273 290 293 293 287 273 246 223 206
169 165 162 159 155 149 144 133 109 94 86 78 68 61 48 42 30 21 7 8 2 345 323 320 325 333 332 336 328 304 278 265 261 208 270 296 308 307 296 276 238 207 190
141 143 141 139 134 126 115 104 97 90 84 79 73 64 51 41 31 27 16 12 4 1 350 336 346 352 346 348 339 325 288 267 258 221 235 282 321 326 316 281 214 185 173
141 135 131 128 123 115 110 105 100 96 91 83 72 61 49 40 27 15 19 17 10 6 16 17 20 17 11 2 356 346 331 301 270 252 266 348 341 341 359 3 166 164 160
145 138 130 123 117 110 104 107 107 102 97 89 79 70 60 51 40 23 22 16 14 14 22 28 30 27 20 10 3 349 337 326 308 301 276 277 300 327 32 99 127 143 147
136 130 123 116 108 97 72 68 97 102 95 87 77 68 69 52 61 78 56 42 28 26 24 21 32 26 19 10 359 358 355 355 352 346 308 285 312 315 8 105 126 138 145
138 130 123 115 106 98 86 77 73 100 92 79 68 51 44 42 21 33 82 126 73 50 15 15 33 21 15 8 355 5 17 18 7 350 339 354 6 346 16 100 136 141 143
142 134 128 121 116 114 105 100 97 101 91 79 64 50 44 39 23 1 26 51 54 49 35 35 33 26 22 2 351 354 3 34 46 26 14 19 12 10 16 86 146 156 159
143 139 134 133 129 130 134 130 189 113 101 84 67 51 35 38 15 351 13 31 36 41 104 103 353 318 313 346 356 2 3 9 29 37 24 25 6 359 19 52 122 173 184
145 140 133 137 137 136 138 129 291 134 110 103 95 89 63 35 14 2 19 27 25 15 7 19 14 344 3 24 17 13 5 4 11 25 21 11 15 19 24 40 76 156 196
Height
1550 1551 1550 1550 1551 1551 1550 1549 1549 1548 1547 1546 1546 1545 1544 1543 1543 1542 1541 1539 1539 1539 1538 1538 1538 1538 1538 1538 1539 1539 1539 1539 1540 1540 1540 1541 1541 1542 1543 1544 1545 1547 1548
1548 1548 1548 1547 1548 1548 1548 1547 1546 1545 1544 1543 1542 1541 1540 1540 1539 1538 1537 1536 1534 1533 1533 1533 1533 1533 1533 1534 1534 1535 1535 1536 1536 1536 1536 1537 1537 1538 1539 1540 1541 1542 1544
1545 1545 1545 1545 1545 1544 1544 1543 1542 1541 1540 1540 1539 1538 1536 1535 1534 1533 1532 1531 1531 1529 1528 1528 1528 1528 1528 1529 1529 1530 1531 1531 1532 1532 1533 1533 1534 1534 1535 1536 1536 1538 1539
1541 1542 1542 1541 1541 1540 1540 1539 1538 1538 1537 1536 1535 1533 1533 1531 1529 1528 1527 1526 1525 1525 1524 1523 1523 1523 1523 1524 1524 1525 1526 1527 1528 1529 1529 1530 1530 1531 1531 1531 1532 1533 1534
1537 1538 1537 1537 1537 1536 1535 1535 1535 1533 1532 1531 1530 1528 1527 1526 1524 1522 1521 1520 1519 1518 1518 1518 1517 1518 1518 1519 1520 1521 1522 1523 1524 1525 1526 1526 1527 1527 1528 1528 1528 1529 1529
1532 1532 1533 1533 1532 1531 1530 1530 1530 1528 1527 1526 1524 1522 1520 1519 1517 1516 1514 1514 1513 1512 1512 1513 1512 1512 1513 1514 1515 1516 1517 1518 1520 1521 1522 1522 1523 1524 1524 1524 1524 1524 1525
1526 1526 1528 1527 1527 1526 1526 1526 1525 1524 1523 1521 1519 1517 1514 1512 1510 1508 1507 1507 1507 1506 1506 1506 1506 1508 1508 1508 1510 1511 1512 1514 1515 1516 1517 1518 1519 1519 1520 1520 1520 1520 1520
1519 1519 1520 1521 1521 1521 1521 1520 1519 1518 1518 1517 1515 1513 1509 1507 1504 1502 1502 1501 1500 1500 1500 1500 1500 1500 1502 1504 1504 1505 1507 1509 1510 1512 1513 1513 1514 1515 1515 1515 1515 1515 1515
1512 1512 1512 1514 1515 1515 1516 1514 1514 1513 1512 1512 1511 1510 1507 1501 1500 1499 1498 1496 1495 1494 1494 1494 1494 1495 1495 1497 1499 1500 1501 1503 1504 1506 1507 1508 1509 1509 1510 1509 1509 1509 1509
1504 1504 1505 1507 1508 1509 1510 1510 1510 1509 1508 1507 1506 1504 1503 1501 1499 1495 1494 1492 1491 1489 1489 1489 1489 1489 1490 1491 1492 1494 1495 1497 1498 1499 1501 1502 1502 1503 1503 1503 1503 1503 1503
1497 1498 1499 1501 1503 1504 1505 1505 1505 1504 1504 1503 1502 1500 1499 1497 1495 1493 1489 1488 1487 1486 1485 1484 1484 1485 1485 1486 1487 1488 1489 1490 1491 1492 1493 1495 1496 1496 1496 1496 1496 1496 1495
1492 1493 1494 1495 1498 1500 1501 1502 1501 1501 1500 1499 1498 1496 1495 1493 1491 1489 1486 1484 1482 1482 1481 1480 1480 1480 1480 1480 1481 1482 1483 1484 1485 1486 1487 1487 1488 1489 1489 1489 1488 1488 1488
1488 1489 1490 1492 1494 1496 1498 1498 1497 1497 1497 1496 1495 1493 1492 1490 1488 1486 1484 1482 1480 1478 1477 1476 1476 1475 1475 1475 1475 1476 1476 1478 1479 1479 1480 1480 1481 1481 1481 1480 1480 1479 1480
1484 1485 1487 1489 1491 1493 1494 1494 1495 1494 1494 1493 1492 1491 1490 1488 1486 1485 1483 1481 1478 1476 1475 1474 1473 1472 1471 1471 1470 1470 1471 1472 1473 1473 1473 1473 1474 1473 1473 1472 1471 1471 1472
1481 1483 1485 1487 1489 1490 1491 1491 1492 1491 1491 1491 1490 1489 1488 1487 1485 1484 1482 1480 1479 1476 1474 1473 1472 1470 1469 1468 1467 1466 1466 1466 1467 1467 1467 1467 1467 1466 1465 1464 1463 1463 1464
1478 1481 1483 1485 1487 1488 1489 1489 1490 1489 1489 1489 1488 1487 1486 1486 1484 1482 1481 1479 1478 1477 1474 1472 1470 1468 1466 1465 1464 1463 1462 1462 1462 1462 1462 1461 1461 1460 1458 1457 1456 1456 1458
1478 1480 1482 1484 1485 1486 1487 1488 1489 1488 1488 1488 1487 1487 1486 1484 1483 1482 1480 1478 1477 1475 1473 1471 1469 1467 1464 1463 1461 1460 1459 1458 1458 1457 1457 1456 1455 1454 1453 1451 1450 1450 1452
1478 1480 1482 1483 1484 1485 1486 1487 1488 1487 1487 1487 1487 1486 1486 1485 1482 1481 1479 1478 1476 1473 1471 1469 1467 1465 1463 1461 1459 1458 1456 1455 1454 1453 1453 1452 1451 1450 1448 1447 1446 1446 1447
1479 1481 1482 1483 1484 1485 1486 1486 1487 1487 1487 1487 1487 1487 1486 1485 1483 1481 1479 1478 1475 1473 1470 1468 1466 1463 1462 1460 1458 1456 1454 1452 1451 1450 1450 1449 1448 1446 1445 1443 1442 1443 1444
1480 1481 1483 1484 1485 1486 1486 1486 1487 1487 1488 1488 1488 1487 1486 1485 1483 1482 1481 1478 1476 1474 1471 1469 1466 1464 1461 1459 1457 1455 1452 1450 1449 1448 1447 1446 1445 1444 1442 1441 1441 1441 1442
1482 1483 1484 1485 1486 1487 1487 1488 1488 1489 1489 1489 1489 1489 1487 1486 1484 1483 1481 1479 1477 1475 1473 1470 1468 1466 1463 1460 1457 1454 1452 1449 1447 1446 1445 1444 1443 1442 1442 1441 1441 1441 1442
1483 1484 1485 1486 1487 1487 1488 1489 1490 1491 1491 1491 1491 1490 1490 1488 1486 1484 1482 1480 1478 1476 1474 1472 1470 1468 1465 1462 1459 1455 1452 1448 1446 1445 1443 1442 1442 1442 1441 1442 1442 1442 1444
1483 1485 1486 1487 1487 1488 1490 1491 1491 1492 1492 1492 1492 1491 1491 1489 1487 1486 1484 1482 1480 1478 1476 1474 1473 1470 1468 1464 1461 1457 1454 1450 1447 1445 1443 1441 1441 1441 1441 1442 1443 1445 1446
1484 1485 1486 1487 1488 1490 1491 1492 1493 1493 1493 1493 1492 1492 1491 1489 1487 1486 1485 1484 1482 1480 1478 1476 1474 1472 1469 1466 1463 1461 1457 1453 1450 1447 1444 1443 1441 1441 1442 1443 1445 1447 1450
1483 1485 1486 1488 1489 1490 1492 1493 1493 1494 1493 1493 1493 1492 1491 1490 1488 1486 1486 1485 1483 1481 1479 1477 1475 1473 1470 1467 1465 1462 1459 1456 1453 1450 1447 1445 1444 1443 1443 1444 1446 1448 1452
1482 1485 1486 1488 1490 1491 1492 1492 1493 1494 1493 1494 1493 1492 1491 1490 1488 1487 1486 1485 1483 1482 1481 1479 1476 1474 1472 1469 1466 1463 1461 1458 1455 1453 1451 1448 1447 1445 1445 1445 1446 1448 1451